User: anonymous   Login
Location: Caltech
(34.1382°N, 118.1253°W)
Time: 12:47:15
(UTC-08:00)
Language:

SL-08 R/B - Orbit

View from above orbital plane
View from above orbital plane
View from above satellite
View from above satellite

Ground track
Ground track

The orbit data is extracted from the following two-line orbital elements,

1 27561U 02054C   15058.97559172  .00000476  00000-0  11918-3 0  9996
2 27561 098.1380 197.0178 0045347 256.1346 103.4804 14.55221964650061
Epoch (UTC): 27 February 2015 23:24:51
Eccentricity: 0.0045347
inclination: 98.1380°
perigee height: 676 km
apogee height: 741 km
right ascension of ascending node: 197.0178°
argument of perigee: 256.1346°
revolutions per day: 14.55221964
mean anomaly at epoch: 103.4804°
orbit number at epoch: 65006

The dashed part of the orbit path shows where the satellite is in the earth's shadow,  

DLR